Wind_Speed
45 46 48 50 52 54 55 57 59 61 63 64 64 65 66 66 66 67 67 67 67 66 66 66 66 66 67 67 68 67 66 66 65 64 65 65 65 66
48 49 51 53 55 57 58 60 62 63 64 65 65 66 66 66 66 66 65 65 64 64 64 64 64 64 64 63 62 62 62 61 61 61 62 62 62 62
51 53 54 56 57 59 60 61 61 62 63 64 65 65 64 64 64 63 63 62 62 61 60 60 59 58 56 56 55 54 54 54 55 56 56 56 56 57
53 55 56 57 57 58 58 58 59 59 60 60 61 61 60 59 59 58 57 56 55 54 53 52 51 50 49 48 48 48 48 49 49 50 51 52 52 52
54 55 57 58 58 57 57 57 57 56 55 55 54 53 52 52 50 49 48 48 47 46 45 44 43 43 42 42 42 42 42 43 44 44 45 45 45 45
53 54 54 54 54 54 53 53 52 51 49 48 46 46 45 44 42 42 41 41 40 38 37 36 36 36 36 36 37 38 38 39 39 39 39 39 39 40
49 50 50 50 50 50 49 48 47 45 43 41 40 39 37 36 36 35 35 33 32 32 31 31 31 31 32 32 32 33 34 35 35 36 36 36 37 37
46 46 46 45 45 44 42 41 39 36 35 34 33 31 30 30 29 29 28 27 27 27 28 29 29 29 30 30 30 30 31 32 33 33 33 34 34 35
42 41 40 39 38 36 34 32 30 29 28 27 26 25 25 24 23 23 23 23 23 24 25 26 26 26 27 28 28 29 29 30 31 31 31 31 32 32
36 35 34 32 30 28 25 23 21 20 20 20 20 20 19 19 20 20 20 21 21 22 22 23 24 25 25 26 26 26 27 27 28 28 29 29 29 29
29 28 26 24 21 20 19 18 17 16 16 16 16 16 17 18 18 18 18 19 19 20 21 22 23 23 24 24 24 24 25 25 26 26 26 26 26 26
24 23 20 19 17 16 15 15 14 14 14 15 15 15 15 15 16 16 17 17 18 19 20 21 21 21 21 22 23 23 23 24 24 23 23 23 23 22
20 18 17 16 15 14 14 13 13 13 13 14 14 14 15 15 15 16 16 17 18 18 19 20 20 20 20 20 21 21 22 23 23 22 21 20 19 18
16 15 14 14 13 13 13 13 13 13 13 14 15 15 15 15 16 16 16 16 17 18 19 19 18 18 19 19 20 21 22 22 21 21 20 18 17 15
13 13 13 12 12 12 13 13 14 14 14 15 15 15 16 15 15 15 15 16 17 17 18 18 17 17 18 18 18 20 21 21 21 20 19 18 15 13
11 11 11 11 12 13 13 14 15 15 15 15 15 15 15 15 15 15 15 16 16 16 17 16 16 17 17 17 18 20 21 21 21 21 20 18 15 13
10 11 11 12 12 13 13 14 15 15 15 16 16 15 14 14 14 15 15 15 15 15 15 15 15 16 17 18 19 20 21 21 21 21 20 19 17 14
10 11 11 12 12 13 14 14 15 15 15 16 15 15 14 13 13 13 14 13 14 14 15 15 16 16 17 18 20 20 21 21 22 22 21 20 18 16
10 11 12 12 13 13 14 14 14 14 15 15 15 14 14 13 13 13 13 13 12 13 14 15 16 17 17 18 19 20 22 22 22 22 22 21 20 18
10 11 12 13 13 14 14 14 14 14 14 14 14 14 14 13 13 13 13 12 12 12 14 14 16 17 17 18 19 20 21 22 22 23 23 22 22 21
10 11 12 13 14 14 14 14 14 14 14 14 14 14 13 13 12 12 12 12 11 12 13 13 15 16 17 19 20 21 21 22 23 23 24 23 22 21
11 12 12 13 13 14 14 14 14 14 14 14 14 13 13 13 12 12 11 11 11 12 12 13 14 15 16 18 20 21 21 22 23 24 24 23 23 22
11 11 12 13 13 13 14 14 14 14 15 14 14 13 13 13 12 11 11 11 11 12 12 13 13 14 15 17 18 20 21 22 23 24 24 24 24 24
Wind_Direction
285 285 284 285 284 284 284 283 283 282 282 281 281 280 279 280 280 281 281 282 282 281 281 280 280 279 279 279 278 278 278 277 277 276 275 274 272 270
284 284 285 285 285 284 284 283 282 282 281 281 281 280 280 281 281 282 282 283 283 282 282 282 282 281 281 280 280 279 278 277 277 276 275 274 273 271
283 285 286 286 286 285 285 284 284 283 282 282 282 282 282 283 283 283 284 284 284 284 285 284 284 283 282 281 280 279 279 278 278 277 277 275 273 271
286 287 288 288 287 286 286 285 285 285 285 285 285 285 285 285 285 285 285 285 285 286 286 286 285 284 283 282 281 281 280 279 279 278 277 276 274 272
289 289 289 289 288 288 287 287 287 287 287 287 287 287 288 288 288 288 288 288 288 288 288 287 286 286 285 285 284 284 283 282 282 281 279 277 275 272
292 292 291 291 291 290 290 289 289 289 290 290 290 290 290 290 290 290 290 291 291 290 290 289 288 289 288 288 287 286 285 284 283 282 281 279 276 273
296 296 295 294 293 293 292 292 291 291 291 291 291 292 292 292 293 293 294 293 293 294 294 294 294 294 293 292 290 289 288 287 286 284 283 280 278 275
300 299 298 297 297 296 295 295 295 294 294 293 293 294 294 296 297 298 297 297 297 298 299 300 300 299 298 297 296 295 293 291 290 288 286 283 280 277
303 302 302 302 301 300 301 299 299 297 296 296 296 297 298 299 301 301 301 301 302 303 304 305 305 304 303 302 302 300 298 296 295 293 290 288 284 280
307 307 307 307 307 308 309 309 308 306 305 304 303 303 303 305 306 306 307 307 308 310 311 311 310 310 309 309 308 307 306 304 302 299 296 293 289 285
316 317 317 316 316 318 319 320 319 317 315 313 312 310 311 311 312 313 313 314 315 317 318 319 318 317 316 317 317 315 313 311 308 304 301 298 294 289
322 324 326 327 329 331 331 331 330 327 326 325 322 320 321 321 321 322 323 323 323 325 326 327 326 326 325 326 326 324 322 320 317 314 311 306 301 295
327 331 334 337 339 341 342 342 340 338 337 336 334 333 332 332 331 331 331 330 331 332 333 334 333 333 334 336 335 334 333 331 329 326 324 319 313 306
332 337 339 342 344 347 349 349 349 348 347 345 343 341 339 339 339 339 338 337 336 337 338 340 342 343 344 344 345 345 345 343 342 339 336 333 329 323
338 342 346 350 352 354 356 357 357 356 354 352 349 346 344 345 345 344 344 344 343 343 345 349 352 353 353 353 353 354 354 354 353 351 349 348 345 342
346 352 355 357 0 3 4 2 0 359 357 355 353 352 351 352 352 351 350 349 351 352 355 358 0 1 1 1 1 0 1 2 1 1 2 1 360 358
356 360 1 3 5 5 3 0 359 358 359 359 358 358 357 357 356 357 357 358 359 1 4 6 7 8 9 9 9 9 9 10 11 12 12 13 13 13
1 2 4 4 3 2 1 360 360 1 2 3 5 5 4 2 1 2 3 6 8 10 12 14 15 16 17 17 17 16 17 17 17 18 20 21 24 27
4 5 6 5 5 4 3 3 3 4 6 7 9 8 7 6 6 7 9 13 16 18 19 21 21 22 22 22 23 23 23 23 24 26 28 30 32 34
8 9 8 7 7 7 6 7 8 9 10 11 11 11 11 11 12 13 15 19 22 23 24 26 27 27 27 27 27 26 26 27 28 29 31 34 37 39
10 9 9 9 10 11 11 12 13 13 13 13 14 14 15 16 17 18 20 23 26 26 27 29 30 31 32 33 33 32 32 32 31 32 34 36 38 41
9 10 11 12 13 13 14 15 16 15 15 16 17 18 19 20 21 23 25 27 29 31 32 33 33 34 35 36 36 35 35 34 34 36 39 40 42 46
12 13 14 15 16 16 17 19 19 19 18 19 20 22 23 24 26 28 31 33 35 37 38 38 38 39 39 38 37 36 36 37 37 39 42 44 46 49
Height
5774 5771 5768 5764 5760 5755 5751 5746 5742 5736 5731 5726 5722 5717 5713 5709 5705 5701 5697 5693 5689 5684 5680 5676 5672 5669 5665 5662 5659 5656 5653 5650 5647 5645 5643 5642 5641 5640
5761 5758 5753 5749 5745 5740 5735 5730 5724 5719 5713 5707 5702 5698 5694 5689 5686 5682 5678 5674 5671 5666 5662 5658 5654 5650 5646 5643 5640 5637 5634 5631 5628 5626 5624 5622 5620 5619
5747 5743 5739 5734 5729 5723 5718 5712 5706 5701 5695 5689 5684 5679 5675 5672 5667 5664 5660 5656 5652 5649 5645 5640 5637 5633 5629 5626 5622 5619 5616 5613 5610 5608 5605 5603 5601 5600
5733 5728 5723 5717 5712 5706 5700 5694 5689 5683 5678 5672 5666 5662 5658 5655 5651 5647 5643 5639 5636 5632 5629 5624 5621 5617 5614 5610 5607 5604 5601 5598 5595 5592 5589 5587 5585 5582
5717 5712 5706 5701 5695 5689 5683 5677 5672 5666 5661 5656 5650 5646 5643 5639 5636 5633 5629 5625 5621 5618 5615 5612 5608 5605 5601 5597 5594 5591 5588 5584 5581 5578 5574 5571 5569 5568
5702 5696 5690 5684 5678 5672 5667 5661 5656 5650 5646 5641 5637 5633 5630 5627 5624 5621 5618 5614 5610 5607 5604 5600 5597 5593 5590 5586 5583 5579 5575 5572 5568 5565 5562 5559 5556 5555
5688 5682 5675 5669 5663 5657 5652 5646 5641 5637 5632 5629 5626 5622 5619 5617 5614 5611 5608 5604 5601 5598 5594 5591 5587 5584 5580 5576 5573 5569 5565 5561 5557 5554 5550 5547 5545 5543
5675 5668 5662 5656 5650 5644 5639 5634 5629 5625 5622 5619 5616 5614 5611 5608 5605 5602 5599 5597 5593 5590 5586 5582 5578 5575 5571 5567 5563 5559 5555 5551 5547 5543 5540 5537 5534 5531
5663 5657 5650 5644 5639 5634 5629 5624 5621 5617 5614 5611 5609 5607 5604 5602 5599 5596 5593 5590 5587 5583 5580 5575 5571 5567 5563 5559 5555 5551 5546 5542 5538 5534 5530 5526 5523 5520
5653 5647 5641 5635 5630 5625 5621 5618 5614 5611 5609 5606 5604 5602 5600 5597 5594 5591 5588 5585 5581 5578 5574 5570 5565 5561 5557 5552 5548 5543 5539 5534 5529 5525 5521 5517 5513 5510
5646 5640 5634 5629 5625 5621 5617 5614 5611 5608 5606 5603 5601 5599 5597 5594 5590 5587 5584 5581 5577 5573 5569 5565 5560 5556 5551 5547 5542 5537 5532 5527 5522 5517 5513 5509 5505 5501
5641 5635 5630 5626 5622 5618 5615 5612 5609 5606 5604 5602 5599 5597 5594 5591 5587 5584 5581 5577 5574 5570 5566 5561 5556 5552 5547 5542 5537 5531 5526 5521 5516 5511 5506 5501 5497 5494
5637 5633 5628 5624 5621 5617 5614 5611 5608 5605 5603 5600 5597 5594 5591 5588 5585 5581 5578 5574 5571 5567 5563 5558 5553 5548 5544 5539 5534 5528 5522 5517 5511 5505 5500 5496 5492 5488
5635 5631 5627 5624 5620 5617 5614 5611 5608 5605 5602 5599 5596 5593 5590 5586 5583 5579 5576 5572 5569 5565 5560 5556 5551 5546 5541 5536 5532 5526 5520 5514 5508 5503 5497 5492 5488 5484
5634 5631 5627 5624 5620 5617 5614 5611 5607 5604 5601 5598 5595 5592 5588 5585 5582 5578 5575 5571 5567 5563 5559 5554 5550 5545 5540 5536 5531 5525 5520 5513 5507 5501 5496 5490 5486 5482
5634 5631 5627 5624 5621 5617 5614 5611 5608 5604 5601 5598 5594 5591 5587 5584 5581 5577 5574 5570 5567 5563 5558 5554 5550 5545 5540 5536 5531 5525 5519 5513 5507 5501 5496 5490 5485 5481
5634 5631 5628 5624 5621 5618 5615 5612 5608 5604 5601 5598 5594 5590 5587 5584 5580 5577 5574 5570 5566 5562 5559 5555 5550 5546 5541 5537 5531 5526 5520 5514 5508 5503 5497 5491 5486 5482
5634 5631 5628 5625 5622 5618 5615 5612 5608 5604 5601 5597 5594 5590 5587 5584 5581 5577 5574 5570 5567 5563 5559 5555 5551 5547 5543 5538 5533 5528 5522 5516 5511 5505 5499 5494 5489 5485
5634 5631 5628 5625 5622 5619 5615 5612 5608 5605 5601 5598 5594 5591 5588 5584 5581 5578 5574 5571 5568 5564 5561 5557 5553 5549 5545 5540 5536 5530 5525 5519 5514 5508 5503 5497 5493 5488
5635 5632 5629 5625 5622 5619 5615 5612 5609 5605 5602 5598 5595 5591 5588 5585 5582 5579 5575 5572 5569 5566 5562 5559 5555 5551 5547 5543 5538 5533 5528 5523 5518 5513 5507 5502 5497 5493
5635 5632 5629 5626 5622 5619 5616 5612 5609 5606 5603 5599 5596 5592 5589 5586 5583 5580 5577 5573 5570 5568 5564 5561 5558 5554 5550 5546 5542 5537 5532 5527 5522 5517 5512 5508 5503 5499
5635 5632 5629 5626 5623 5620 5616 5613 5610 5607 5603 5600 5596 5593 5590 5587 5584 5581 5578 5575 5572 5569 5566 5563 5560 5557 5553 5550 5546 5541 5537 5532 5528 5523 5518 5514 5510 5505
5636 5633 5630 5627 5624 5621 5617 5614 5611 5607 5604 5600 5597 5594 5591 5588 5585 5582 5579 5577 5574 5571 5568 5566 5563 5560 5557 5553 5549 5545 5541 5537 5533 5529 5525 5520 5516 5512